TimeCDT,TemperatureF,Dew PointF,Humidity,Sea Level PressureIn,VisibilityMPH,Wind Direction,Wind SpeedMPH,Gust SpeedMPH,PrecipitationIn,Events,Conditions,WindDirDegrees,DateUTC
12:53 AM,61.0,57.9,90,29.88,10.0,ENE,6.9,-,N/A,,Partly Cloudy,70,2014-04-02 05:53:00
1:53 AM,63.0,59.0,87,29.86,10.0,East,8.1,-,N/A,,Clear,80,2014-04-02 06:53:00
2:53 AM,63.0,59.0,87,29.87,10.0,NE,5.8,-,N/A,,Overcast,50,2014-04-02 07:53:00
3:53 AM,63.0,59.0,87,29.86,10.0,East,8.1,-,N/A,,Overcast,80,2014-04-02 08:53:00
4:27 AM,63.0,59.0,87,29.87,10.0,NE,4.6,-,N/A,,Overcast,50,2014-04-02 09:27:00
4:53 AM,63.0,59.0,87,29.86,10.0,NE,5.8,-,N/A,,Overcast,40,2014-04-02 09:53:00
5:23 AM,62.1,57.9,86,29.87,10.0,NE,6.9,-,N/A,,Overcast,50,2014-04-02 10:23:00
5:53 AM,62.1,59.0,90,29.85,10.0,ENE,4.6,-,N/A,,Overcast,60,2014-04-02 10:53:00
7:53 AM,63.0,60.1,90,29.85,8.0,North,4.6,-,N/A,,Overcast,10,2014-04-02 12:53:00
8:53 AM,66.9,62.1,84,29.85,10.0,ENE,3.5,-,N/A,,Overcast,70,2014-04-02 13:53:00
9:53 AM,71.1,63.0,75,29.85,10.0,ENE,3.5,-,N/A,,Overcast,70,2014-04-02 14:53:00
10:53 AM,75.9,63.0,64,29.85,10.0,SSW,12.7,26.5,N/A,,Overcast,200,2014-04-02 15:53:00
11:53 AM,78.1,63.0,60,29.83,10.0,South,15.0,26.5,N/A,,Overcast,190,2014-04-02 16:53:00
12:53 PM,80.1,63.0,56,29.81,10.0,SSW,17.3,31.1,N/A,,Overcast,200,2014-04-02 17:53:00
1:53 PM,81.0,64.0,56,29.80,10.0,SSW,16.1,-,N/A,,Overcast,200,2014-04-02 18:53:00
2:53 PM,82.0,64.9,56,29.78,10.0,South,13.8,26.5,N/A,,Partly Cloudy,190,2014-04-02 19:53:00
3:53 PM,78.1,64.9,64,29.77,10.0,SSE,13.8,-,N/A,,Mostly Cloudy,160,2014-04-02 20:53:00
4:53 PM,77.0,64.9,66,29.75,10.0,South,11.5,-,N/A,,Mostly Cloudy,180,2014-04-02 21:53:00
5:53 PM,77.0,66.0,69,29.75,10.0,SE,8.1,-,N/A,,Overcast,140,2014-04-02 22:53:00
6:53 PM,75.9,64.9,69,29.74,10.0,SE,8.1,-,N/A,,Mostly Cloudy,130,2014-04-02 23:53:00
7:53 PM,75.0,66.0,73,29.73,10.0,ESE,9.2,-,N/A,,Overcast,120,2014-04-03 00:53:00
8:53 PM,75.0,64.9,71,29.74,10.0,SE,4.6,-,N/A,,Overcast,140,2014-04-03 01:53:00
9:53 PM,75.0,64.9,71,29.73,10.0,SSE,8.1,-,N/A,,Mostly Cloudy,160,2014-04-03 02:53:00
10:53 PM,75.9,64.0,67,29.72,10.0,Variable,3.5,-,N/A,,Overcast,0,2014-04-03 03:53:00
11:53 PM,77.0,64.0,64,29.72,10.0,South,10.4,-,N/A,,Overcast,180,2014-04-03 04:53:00